Zurück zum Katalog

NOAA 16 DEB

AktivSSO
NORAD 42397·DEBRIS·🇺🇸 United States

Gestartet Sep 21, 2000 von Vandenberg Space Force Base

Loading…

Nächste Überflüge (nächste 24 Stunden)

TLE

AktuellSource: Space-Track

Epoche: Sep 14, 2026, 12:37 UTC

1 42397U 00055SR  26257.52615143  .00006204  00000-0  16588-2 0  9996
2 42397  98.7321 357.8147 0027826  24.1938 336.0554 14.48440818546670

Verfolge NOAA 16 DEB in Echtzeit mit AllMySat

Download on the App Store